DateTimeUTC,F1_A11,F1_S11,BsB_S11,BsG_S11,BsR_S11,BbsB_S11,BbsG_S11,BbsR_S11,BaB_A11,BaG_A11,BaR_A11,Tu_S11,T_S11,Uu_S11,U_S11,P_S11,T1_A11
2021-05-07T02:00:00Z,00000200,21000000,,,,,,,0000.04,0000.07,0000.34,17.2,24.4,,00.0,0673.5,31.1
2021-05-07T02:01:00Z,00000200,21000000,,,,,,,0000.03,0000.11,-000.54,17.2,24.4,,00.0,0673.5,31.1
2021-05-07T02:02:00Z,00000200,21000000,,,,,,,0000.04,-000.02,0000.24,17.2,24.5,,00.0,0673.5,31.0
2021-05-07T02:03:00Z,00000200,61000000,,,,,,,0053.39,0048.95,0039.34,17.2,24.5,,00.0,0673.5,31.1
2021-05-07T02:04:00Z,00000200,41000000,0011.43,0007.54,0004.73,0002.50,0001.81,0001.35,0089.71,0083.58,0067.80,17.2,24.2,,00.0,0674.5,31.0
2021-05-07T02:05:00Z,00000200,01000000,0003.61,0002.37,0001.48,0001.17,0000.34,0000.45,0011.29,0010.29,0007.96,17.2,24.1,,00.0,0674.5,31.0
2021-05-07T02:06:00Z,00000200,01000000,0006.58,0003.98,0002.87,0001.60,0000.84,0001.10,0034.22,0031.98,0025.75,17.2,24.0,,00.0,0674.6,31.0
2021-05-07T02:07:00Z,00000200,01000000,0008.53,0005.82,0003.25,0002.08,0001.10,0000.91,0054.36,0050.52,0040.68,17.1,24.0,,00.0,0674.5,31.0
2021-05-07T02:08:00Z,00000200,01000000,0010.86,0007.33,0004.53,0002.34,0001.78,0001.52,0078.49,0072.28,0058.85,17.1,24.0,,00.0,0674.5,31.0
2021-05-07T02:09:00Z,00000200,01000000,0010.55,0007.27,0004.40,0002.83,0001.92,0001.43,0083.59,0077.63,0062.15,17.1,24.0,,00.0,0674.5,31.0
2021-05-07T02:10:00Z,00000200,01000000,0012.30,0008.63,0005.19,0002.74,0002.05,0001.69,0103.21,0096.11,0077.99,17.1,24.0,,00.0,0674.5,31.0
2021-05-07T02:11:00Z,00000200,01000000,0009.23,0006.17,0003.79,0001.91,0001.61,0001.13,0069.76,0065.13,0052.20,17.1,24.0,,00.0,0674.5,31.0
2021-05-07T02:12:00Z,00000200,01000000,0010.09,0006.77,0004.44,0002.59,0001.72,0001.59,0082.47,0076.54,0061.73,17.2,24.0,,00.0,0674.5,31.0
2021-05-07T02:13:00Z,00040200,01000000,0010.19,0007.11,0004.44,0002.85,0001.84,0001.20,0083.16,0076.93,0062.17,17.3,24.0,,00.0,0674.5,31.0
2021-05-07T02:14:00Z,00040200,01000000,0012.23,0008.07,0005.10,0002.67,0002.05,0001.39,0097.73,0090.77,0073.46,17.3,24.0,,00.0,0674.5,31.1
2021-05-07T02:15:00Z,00040200,01000000,0011.54,0007.97,0005.21,0002.97,0001.88,0001.17,0098.25,0091.39,0074.21,17.3,24.1,,00.0,0674.6,31.1
2021-05-07T02:16:00Z,00040200,01000000,0011.51,0007.81,0004.69,0001.93,0001.93,0001.68,0089.66,0083.40,0067.58,17.4,24.1,,00.0,0674.6,31.1
2021-05-07T02:17:00Z,00040200,01000000,0008.61,0005.27,0003.03,0001.46,0001.13,0000.96,0057.21,0053.80,0043.49,17.5,24.1,,00.0,0674.6,31.1
2021-05-07T02:18:00Z,00040200,01000000,0007.14,0004.40,0002.89,0001.66,0001.28,0001.08,0039.11,0036.41,0029.16,17.5,24.1,,00.0,0674.6,31.1
2021-05-07T02:19:00Z,00040200,01000000,0012.18,0008.30,0005.07,0001.95,0002.06,0001.87,0080.96,0074.88,0060.79,17.5,24.2,,00.0,0674.6,31.1
2021-05-07T02:20:00Z,00040200,01000000,0015.16,0011.15,0006.79,0003.25,0002.78,0001.84,0125.39,0116.44,0094.49,17.5,24.2,,00.0,0674.6,31.1
2021-05-07T02:21:00Z,00040200,01000000,0014.46,0010.21,0006.14,0002.56,0002.43,0002.11,0117.47,0109.40,0088.85,17.5,24.1,,00.0,0674.6,31.1
2021-05-07T02:22:00Z,00040200,01000000,0012.28,0008.70,0004.90,0002.44,0002.02,0001.38,0093.31,0086.78,0070.49,17.4,24.1,,00.0,0674.6,31.1
2021-05-07T02:23:00Z,00040200,01000000,0009.29,0006.32,0003.66,0001.78,0001.39,0000.88,0067.55,0062.88,0050.99,17.4,24.1,,00.0,0674.6,31.0
2021-05-07T02:24:00Z,00040200,01000000,0009.29,0005.89,0003.50,0001.74,0001.31,0000.90,0062.00,0057.88,0047.01,17.4,24.1,,00.0,0674.6,31.0
2021-05-07T02:25:00Z,00040200,01000000,0005.55,0003.58,0002.37,0000.70,0000.82,0000.84,0030.76,0028.69,0023.54,17.4,24.1,,00.0,0674.5,31.0
2021-05-07T02:26:00Z,00040200,01000000,0005.27,0003.12,0001.47,0000.98,0000.57,0000.64,0019.28,0018.16,0014.43,17.4,24.1,,00.0,0674.5,31.1
2021-05-07T02:27:00Z,00040200,01000000,0004.82,0002.92,0001.95,0000.82,0000.59,0000.74,0016.63,0015.44,0012.63,17.5,24.1,,00.0,0674.5,31.1
2021-05-07T02:28:00Z,00040200,01000000,0004.49,0002.45,0001.61,0000.67,0000.59,0000.57,0012.26,0011.56,0009.13,17.5,24.1,,00.0,0674.5,31.1
2021-05-07T02:29:00Z,00040200,01000000,0004.18,0001.95,0001.11,0000.12,0000.55,0000.23,0005.76,0005.38,0004.16,17.5,24.2,,00.0,0674.5,31.1
2021-05-07T02:30:00Z,00040200,01000000,0003.34,0002.14,0001.37,0000.42,0000.60,0000.24,0004.11,0003.52,0003.02,17.5,24.2,,00.0,0674.5,31.1
2021-05-07T02:31:00Z,00040200,01000000,0003.33,0001.89,0001.24,0000.14,0000.51,0000.55,0001.64,0001.49,0001.06,17.5,24.1,,00.0,0674.5,31.1
2021-05-07T02:32:00Z,00040200,01000000,0003.67,0001.88,0001.05,0000.69,0000.41,0000.27,0001.76,0001.40,0001.16,17.4,24.1,,00.0,0674.5,31.0
2021-05-07T02:33:00Z,00040200,01000000,0004.39,0002.15,0001.20,0000.85,0000.37,0000.23,0000.96,0001.29,0000.84,17.4,24.1,,00.0,0674.5,31.0
2021-05-07T02:34:00Z,00040200,01000000,0003.75,0002.22,0001.51,0001.11,0000.49,0000.25,0001.18,0001.09,0000.67,17.3,24.0,,00.0,0674.5,31.0
2021-05-07T02:35:00Z,00040200,01000000,0003.81,0002.24,0000.98,0000.81,0000.27,0000.81,0001.58,0001.11,0001.02,17.3,24.0,,00.0,0674.4,31.0
2021-05-07T02:36:00Z,00040200,01000000,0003.82,0002.27,0000.95,0000.96,0000.38,0000.37,0001.27,0001.28,0000.80,17.2,24.0,,00.0,0674.4,31.0
2021-05-07T02:37:00Z,00040200,01000000,0003.57,0002.12,0001.16,0000.85,0000.54,0000.43,0001.20,0000.97,0000.72,17.2,23.9,,00.0,0674.4,31.0
2021-05-07T02:38:00Z,00040200,01000000,0003.72,0001.84,0000.85,0000.43,0000.56,0000.42,0001.02,0001.25,0000.88,17.1,23.9,,00.0,0674.4,31.0
2021-05-07T02:39:00Z,00040200,01000000,0003.71,0002.06,0001.20,0001.12,0000.55,0000.56,0001.33,0001.25,0000.77,17.1,23.9,,00.0,0674.4,31.0
2021-05-07T02:40:00Z,00040200,01000000,0004.59,0001.84,0001.04,0000.44,0000.37,0000.34,0001.65,0001.09,0001.14,17.1,23.9,,00.0,0674.4,31.0
2021-05-07T02:41:00Z,00040200,01000000,0004.35,0002.24,0000.92,0000.88,0000.54,0000.47,0001.09,0001.17,0000.60,17.2,23.9,,00.0,0674.4,31.0
2021-05-07T02:42:00Z,00040200,01000000,0004.64,0002.08,0001.39,0000.88,0000.62,0000.22,0001.22,0000.91,0000.88,17.2,23.9,00.0,00.0,0674.4,31.0
2021-05-07T02:43:00Z,00040200,01000000,0004.21,0002.46,0001.41,0000.56,0000.36,0000.37,0001.18,0001.13,0000.73,17.3,23.9,,00.0,0674.4,31.0
2021-05-07T02:44:00Z,00040200,01000000,0004.35,0002.12,0001.26,0000.91,0000.41,0000.39,0001.41,0001.31,0001.04,17.4,24.0,,00.0,0674.4,31.0
2021-05-07T02:45:00Z,00040200,01000000,0004.47,0002.38,0001.17,0000.94,0000.50,0000.37,0001.32,0000.96,0000.78,17.4,24.0,,00.0,0674.4,31.1
2021-05-07T02:46:00Z,00040200,01000000,0003.97,0002.20,0001.13,0000.78,0000.47,0000.05,0001.38,0001.18,0000.66,17.5,24.0,,00.0,0674.4,31.1
2021-05-07T02:47:00Z,00040200,01000000,0003.63,0002.52,0000.99,0000.86,0000.45,0000.40,0001.16,0001.10,0000.96,17.5,24.1,,00.0,0674.4,31.1
2021-05-07T02:48:00Z,00040200,01000000,0004.59,0002.72,0001.74,0000.73,0000.52,0000.63,0001.49,0001.54,0001.18,17.5,24.1,,00.0,0674.4,31.1
2021-05-07T02:49:00Z,00040200,01000000,0003.70,0001.86,0000.63,0000.75,0000.59,0000.17,0001.12,0000.96,0000.71,17.5,24.1,,00.0,0674.4,31.1
2021-05-07T02:50:00Z,00040200,01000000,0003.25,0001.98,0000.91,0000.94,0000.55,0000.41,0000.85,0000.87,0000.39,17.4,24.0,,00.0,0674.4,31.0
2021-05-07T02:51:00Z,00040200,01000000,0004.76,0003.05,0001.77,0000.75,0000.66,0000.30,0001.56,0001.27,0000.88,17.4,24.0,,00.0,0674.4,31.0
2021-05-07T02:52:00Z,00040200,01000000,0002.68,0001.46,0000.54,0000.52,0000.26,0000.24,0000.77,0000.93,0000.78,17.3,24.0,00.0,00.0,0674.4,31.0
2021-05-07T02:53:00Z,00040200,01000000,0001.15,0000.72,0000.60,0000.21,0000.07,0000.14,0001.42,0001.08,0000.51,17.3,23.9,00.0,00.0,0674.4,31.0
2021-05-07T02:54:00Z,00040200,01000000,0000.38,0000.13,0000.04,0000.29,0000.20,0000.16,0000.46,0000.30,0000.84,17.3,23.9,00.0,00.0,0674.4,31.0
2021-05-07T02:55:00Z,00040200,01000000,0001.17,0000.57,0000.13,0000.65,0000.11,0000.25,0000.53,0000.54,0000.04,17.3,23.9,,00.0,0674.4,31.0
2021-05-07T02:56:00Z,00040200,01000000,0001.22,0000.44,0000.29,0000.54,0000.36,0000.29,0000.08,0000.18,0000.31,17.3,24.0,00.0,00.0,0674.4,31.0
2021-05-07T02:57:00Z,00040200,41000000,,,,,,,-000.56,-000.51,-000.31,17.4,24.0,,00.0,0674.2,31.0
2021-05-07T02:58:00Z,00040200,61000000,,,,,,,0001.10,0000.85,0000.56,17.1,24.2,,00.0,0673.4,31.1
2021-05-07T02:59:00Z,00040200,21000000,,,,,,,0000.57,0000.62,0000.23,17.1,24.3,,00.0,0673.4,31.1
